Terug naar catalogus

QIANFAN-136

ActiefCommunicatiePO
NORAD 69082·PAYLOAD·🇨🇳 China

Gelanceerd May 12, 2026 vanaf Taiyuan Satellite Launch Center

Loading…

Volgende Passages (komende 24 uur)

TLE

VersSource: Space-Track

Epoch: Sep 14, 2026, 22:22 UTC

1 69082U 26104K   26257.93234341  .00000120  00000-0  16784-3 0  9991
2 69082  88.9911 332.3334 0001979 113.1591 246.9768 13.51031664 17269

Volg QIANFAN-136 in realtime met AllMySat

Download on the App Store